"Pseudo-MPEC" for P10IcVj

Created 2018 Jul 17 10:18:04 UT using Find_Orb

Click here for an explanation of pseudo-MPECs

 
 Astrometry: 
     P10IcVj  C2018 07 084eAstrometry[ZH^`og,*fX7Q*(-dEU5\RC\7!n*5YeI\#/Q$P8bF51
     P10IcVj  C2018 07 08=JyHU\Us'e.==+y.,redacted;Hlu[WDseeq5.#m^;UUeT$tj3GKF51
     P10IcVj  C2018 07 08xUhoaB#GjoC%'AQpOTchoC4L!c=i0hg@W7[Sn(w%EGSov-XNEOCPF51

Station data:
(F51) Pan-STARRS 1, Haleakala  (N20.707235 W156.255910)  US/Hawaii.
   Observers N. Primak, A. Schultz, S. Watters, J. Thiel, T. Goggia. Measurer
   PS1 Science Consortium. 1.8-m Ritchey-Chrétien + CCD.

Orbital elements:  P10IcVj
   Perihelion 2018 Jun 25.384005 +/- 40 TT =  9:12:58 (JD 2458294.884005)
Epoch 2018 Jul  8.0 TT = JDT 2458307.5   Earth MOID: 0.2228   AutoNEOCP
M   2.92389 +/- 25                  (J2000 ecliptic)
n   0.23176119 +/- 0.271            Peri.  357.25826 +/- 70
a   2.62487662 +/- 2.04             Node   281.41355 +/- 60
e   0.5278634 +/- 0.254             Incl.   13.82341 +/- 6
P   4.25                   H 22.9   G  0.15   U 11.9  SR
q 1.23930026 +/- 0.344    Q 4.01045299 +/- 38.9
From 3 observations 2018 July 8 (50.5 min); mean residual 0".01
Residuals in arcseconds: 
180708 F51  .01-  .00     180708 F51  .02+  .00     180708 F51  .02-  .00     

Ephemerides (geocentric):
Date (UTC) HH   RA              Dec         delta   r     elong  mag " sig PA
---- -- -- --  -------------   -----------  ------ ------ -----  --- ---- ---
2018 07 17 10  20 26 54.116   +00 14 21.36  .26505 1.2636 156.3 21.5  74d 174
2018 07 17 11  20 26 54.312   +00 16 28.43  .26516 1.2637 156.3 21.5  74d 174
2018 07 17 12  20 26 54.507   +00 18 35.32  .26528 1.2638 156.3 21.5  74d 174
2018 07 17 13  20 26 54.699   +00 20 42.03  .26539 1.2639 156.3 21.5  74d 174
2018 07 17 14  20 26 54.889   +00 22 48.57  .26550 1.2640 156.3 21.5  74d 174
2018 07 17 15  20 26 55.078   +00 24 54.94  .26562 1.2640 156.3 21.5  74d 174
2018 07 17 16  20 26 55.264   +00 27 01.12  .26573 1.2641 156.3 21.5  75d 174
2018 07 17 17  20 26 55.448   +00 29 07.13  .26584 1.2642 156.3 21.5  75d 174
2018 07 17 18  20 26 55.630   +00 31 12.96  .26596 1.2643 156.2 21.5  75d 174
2018 07 17 19  20 26 55.810   +00 33 18.62  .26607 1.2644 156.2 21.5  75d 174
2018 07 17 20  20 26 55.988   +00 35 24.10  .26619 1.2645 156.2 21.5  75d 174
2018 07 17 21  20 26 56.164   +00 37 29.40  .26630 1.2646 156.2 21.5  75d 174
2018 07 17 22  20 26 56.339   +00 39 34.53  .26642 1.2647 156.2 21.5  75d 174
2018 07 17 23  20 26 56.511   +00 41 39.48  .26653 1.2648 156.2 21.5  75d 174
2018 07 18 00  20 26 56.681   +00 43 44.25  .26665 1.2649 156.2 21.5  75d 174
2018 07 18 01  20 26 56.849   +00 45 48.84  .26676 1.2650 156.2 21.5  75d 175
2018 07 18 02  20 26 57.015   +00 47 53.26  .26688 1.2651 156.2 21.5  75d 175
2018 07 18 03  20 26 57.180   +00 49 57.50  .26700 1.2652 156.2 21.5  75d 175
2018 07 18 04  20 26 57.342   +00 52 01.56  .26711 1.2652 156.2 21.5  75d 175
2018 07 18 05  20 26 57.503   +00 54 05.44  .26723 1.2653 156.1 21.5  75d 175
2018 07 18 06  20 26 57.661   +00 56 09.15  .26735 1.2654 156.1 21.5  75d 175
2018 07 18 07  20 26 57.818   +00 58 12.68  .26747 1.2655 156.1 21.5  75d 175
2018 07 18 08  20 26 57.973   +01 00 16.03  .26758 1.2656 156.1 21.5  75d 175
2018 07 18 09  20 26 58.126   +01 02 19.20  .26770 1.2657 156.1 21.5  75d 175
2018 07 18 10  20 26 58.277   +01 04 22.19  .26782 1.2658 156.1 21.5  75d 175
2018 07 18 11  20 26 58.426   +01 06 25.01  .26794 1.2659 156.1 21.5  75d 175
2018 07 18 12  20 26 58.574   +01 08 27.65  .26806 1.2660 156.1 21.5  75d 175
2018 07 18 13  20 26 58.719   +01 10 30.11  .26817 1.2661 156.1 21.5  75d 175
2018 07 18 14  20 26 58.863   +01 12 32.39  .26829 1.2662 156.1 21.5  75d 175
2018 07 18 15  20 26 59.005   +01 14 34.49  .26841 1.2663 156.0 21.5  75d 175
2018 07 18 16  20 26 59.145   +01 16 36.42  .26853 1.2664 156.0 21.5  75d 175
2018 07 18 17  20 26 59.283   +01 18 38.16  .26865 1.2665 156.0 21.5  75d 175
2018 07 18 18  20 26 59.420   +01 20 39.73  .26877 1.2666 156.0 21.5  75d 175
2018 07 18 19  20 26 59.555   +01 22 41.12  .26889 1.2667 156.0 21.5  75d 175
2018 07 18 20  20 26 59.688   +01 24 42.33  .26901 1.2668 156.0 21.5  76d 175
2018 07 18 21  20 26 59.819   +01 26 43.36  .26913 1.2669 156.0 21.5  76d 174
2018 07 18 22  20 26 59.949   +01 28 44.21  .26926 1.2670 156.0 21.5  76d 174
2018 07 18 23  20 27 00.077   +01 30 44.88  .26938 1.2670 156.0 21.5  76d 174
2018 07 19 00  20 27 00.203   +01 32 45.37  .26950 1.2671 156.0 21.5  76d 174
2018 07 19 01  20 27 00.327   +01 34 45.69  .26962 1.2672 155.9 21.5  77d 174
2018 07 19 02  20 27 00.450   +01 36 45.82  .26974 1.2673 155.9 21.5  77d 174
2018 07 19 03  20 27 00.571   +01 38 45.78  .26987 1.2674 155.9 21.5  77d 174
2018 07 19 04  20 27 00.691   +01 40 45.56  .26999 1.2675 155.9 21.5  77d 174
2018 07 19 05  20 27 00.808   +01 42 45.15  .27011 1.2676 155.9 21.5  77d 174
2018 07 19 06  20 27 00.924   +01 44 44.57  .27023 1.2677 155.9 21.5  78d 174
2018 07 19 07  20 27 01.039   +01 46 43.81  .27036 1.2678 155.9 21.5  78d 174
2018 07 19 08  20 27 01.152   +01 48 42.87  .27048 1.2679 155.9 21.5  78d 174
2018 07 19 09  20 27 01.263   +01 50 41.75  .27060 1.2680 155.9 21.5  78d 174